User: anonymous   Login
Location: Limerick
(52.6800°N, 8.6400°W)
Time: 23:53:36
(UTC+01:00)
Language:

Sapphire - Orbit

View from above orbital plane
View from above orbital plane
View from above satellite
View from above satellite

Ground track
Ground track

The orbit data is extracted from the following two-line orbital elements,

1 26932U 01043D   18114.11661793 -.00000036 +00000-0 +18047-4 0  9993
2 26932 067.0579 011.7109 0005929 293.9320 066.1160 14.30277975864766
Epoch (UTC): 24 April 2018 02:47:55
Eccentricity: 0.0005929
inclination: 67.0579°
perigee height: 786 km
apogee height: 795 km
right ascension of ascending node: 11.7109°
argument of perigee: 293.9320°
revolutions per day: 14.30277975
mean anomaly at epoch: 66.1160°
orbit number at epoch: 86476

The dashed part of the orbit path shows where the satellite is in the earth's shadow,  

DLR